Location: Esp�n
(42.4593°N, 0.2047°W)
Time: 00:16:35
(UTC+00:00)

Cosmos 1125 Rocket - Pass Details

Date: 07 June 2020
Orbit: 758 x 779 km, 74.0° (Epoch: 11 July)

Event Time Altitude Azimuth Distance (km) Brightness Sun altitude
Rises 01:38:05 0° 341° (NNW) 3,225 7.4 -20.9°
Reaches altitude 10° 01:40:28 10° 343° (NNW) 2,297 6.6 -20.7°
Maximum altitude 01:45:41 77° 70° (ENE) 783 3.5 -20.3°
Enters shadow 01:48:53 24° 153° (SSE) 1,540 4.7 -20.1°
